Time,TemperatureF,DewpointF,PressureIn,WindDirection,WindDirectionDegrees,WindSpeedMPH,WindSpeedGustMPH,Humidity,HourlyPrecipIn,Conditions,Clouds,dailyrainin,SolarRadiationWatts/m^2,SoftwareType,DateUTC
2013-11-15 00:11:00,34.0,33.0,-100.00,North,351,2.0,9.0,97,0.00,,,0.00,0.000000,,2013-11-15 08:11:00,
2013-11-15 00:21:00,34.0,33.0,-100.00,North,351,2.0,9.0,97,0.00,,,0.00,0.000000,,2013-11-15 08:21:00,
2013-11-15 00:32:00,34.0,33.0,-100.00,North,351,2.0,9.0,97,0.00,,,0.00,0.000000,,2013-11-15 08:32:00,
2013-11-15 01:11:00,32.0,31.0,-100.00,WNW,294,4.0,6.0,96,0.00,,,0.00,0.000000,,2013-11-15 09:11:00,
2013-11-15 01:22:00,32.0,31.0,-100.00,WNW,294,4.0,6.0,96,0.00,,,0.00,0.000000,,2013-11-15 09:22:00,
2013-11-15 01:33:00,32.0,31.0,-100.00,WNW,294,4.0,6.0,96,0.00,,,0.00,0.000000,,2013-11-15 09:33:00,
2013-11-15 02:12:00,31.0,31.0,-100.00,ESE,114,6.0,11.0,98,0.00,,,0.00,0.000000,,2013-11-15 10:12:00,
2013-11-15 02:22:00,31.0,31.0,-100.00,ESE,114,6.0,11.0,98,0.00,,,0.00,0.000000,,2013-11-15 10:22:00,
2013-11-15 02:33:00,31.0,31.0,-100.00,ESE,114,6.0,11.0,98,0.00,,,0.00,0.000000,,2013-11-15 10:33:00,
2013-11-15 03:12:00,32.0,32.0,-100.00,WNW,303,3.0,7.0,99,0.00,,,0.00,0.000000,,2013-11-15 11:12:00,
2013-11-15 03:22:00,32.0,32.0,-100.00,WNW,303,3.0,7.0,99,0.00,,,0.00,0.000000,,2013-11-15 11:22:00,
2013-11-15 03:33:00,32.0,32.0,-100.00,WNW,303,3.0,7.0,99,0.00,,,0.00,0.000000,,2013-11-15 11:33:00,
2013-11-15 04:11:00,30.0,30.0,-100.00,ESE,121,5.0,9.0,99,0.00,,,0.00,0.000000,,2013-11-15 12:11:00,
2013-11-15 04:21:00,30.0,30.0,-100.00,ESE,121,5.0,9.0,99,0.00,,,0.00,0.000000,,2013-11-15 12:21:00,
2013-11-15 04:32:00,30.0,30.0,-100.00,ESE,121,5.0,9.0,99,0.00,,,0.00,0.000000,,2013-11-15 12:32:00,
2013-11-15 05:11:00,30.0,30.0,-100.00,ESE,122,4.0,9.0,99,0.00,,,0.00,0.000000,,2013-11-15 13:11:00,
2013-11-15 05:21:00,30.0,30.0,-100.00,ESE,122,4.0,9.0,99,0.00,,,0.00,0.000000,,2013-11-15 13:21:00,
2013-11-15 05:32:00,30.0,30.0,-100.00,ESE,122,4.0,9.0,99,0.00,,,0.00,0.000000,,2013-11-15 13:32:00,
2013-11-15 06:11:00,28.0,28.0,-100.00,WSW,248,0.0,7.0,98,0.00,,,0.00,0.000000,,2013-11-15 14:11:00,
2013-11-15 06:21:00,28.0,28.0,-100.00,WSW,248,0.0,7.0,98,0.00,,,0.00,0.000000,,2013-11-15 14:21:00,
2013-11-15 06:32:00,28.0,28.0,-100.00,WSW,248,0.0,7.0,98,0.00,,,0.00,0.000000,,2013-11-15 14:32:00,
2013-11-15 07:11:00,29.0,29.0,-100.00,ESE,120,4.0,9.0,98,0.00,,,0.00,0.000000,,2013-11-15 15:11:00,
2013-11-15 07:21:00,29.0,29.0,-100.00,ESE,120,4.0,9.0,98,0.00,,,0.00,0.000000,,2013-11-15 15:21:00,
2013-11-15 07:33:00,29.0,29.0,-100.00,ESE,120,4.0,9.0,98,0.00,,,0.00,0.000000,,2013-11-15 15:33:00,
2013-11-15 08:12:00,31.0,30.0,-100.00,WSW,255,5.0,8.0,97,0.00,,,0.00,14.000000,,2013-11-15 16:12:00,
2013-11-15 08:23:00,31.0,30.0,-100.00,WSW,255,5.0,8.0,97,0.00,,,0.00,14.000000,,2013-11-15 16:23:00,
2013-11-15 08:33:00,31.0,30.0,-100.00,WSW,255,5.0,8.0,97,0.00,,,0.00,14.000000,,2013-11-15 16:33:00,
2013-11-15 09:12:00,34.0,31.0,-100.00,WSW,245,5.0,8.0,90,0.00,,,0.00,169.000000,,2013-11-15 17:12:00,
2013-11-15 09:22:00,34.0,31.0,-100.00,WSW,245,5.0,8.0,90,0.00,,,0.00,169.000000,,2013-11-15 17:22:00,
2013-11-15 09:32:00,34.0,31.0,-100.00,WSW,245,5.0,8.0,90,0.00,,,0.00,169.000000,,2013-11-15 17:32:00,
2013-11-15 10:12:00,36.0,31.0,-100.00,SW,235,7.0,12.0,81,0.00,,,0.00,342.000000,,2013-11-15 18:12:00,
2013-11-15 10:22:00,36.0,31.0,-100.00,SW,235,7.0,12.0,81,0.00,,,0.00,342.000000,,2013-11-15 18:22:00,
2013-11-15 10:32:00,36.0,31.0,-100.00,SW,235,7.0,12.0,81,0.00,,,0.00,342.000000,,2013-11-15 18:32:00,
2013-11-15 11:12:00,35.0,31.0,-100.00,WSW,258,6.0,15.0,85,0.00,,,0.00,360.000000,,2013-11-15 19:12:00,
2013-11-15 11:21:00,35.0,31.0,-100.00,WSW,258,6.0,15.0,85,0.00,,,0.00,360.000000,,2013-11-15 19:21:00,
2013-11-15 11:32:00,35.0,31.0,-100.00,WSW,258,6.0,15.0,85,0.00,,,0.00,360.000000,,2013-11-15 19:32:00,
2013-11-15 12:12:00,37.0,30.0,-100.00,WNW,286,7.0,13.0,77,0.00,,,0.00,338.000000,,2013-11-15 20:12:00,
2013-11-15 12:22:00,37.0,30.0,-100.00,WNW,286,7.0,13.0,77,0.00,,,0.00,338.000000,,2013-11-15 20:22:00,
2013-11-15 12:31:00,37.0,30.0,-100.00,WNW,286,7.0,13.0,77,0.00,,,0.00,338.000000,,2013-11-15 20:31:00,
2013-11-15 13:12:00,39.0,29.0,-100.00,NW,304,6.0,14.0,66,0.00,,,0.00,381.000000,,2013-11-15 21:12:00,
2013-11-15 13:21:00,39.0,29.0,-100.00,NW,304,6.0,14.0,66,0.00,,,0.00,381.000000,,2013-11-15 21:21:00,
2013-11-15 13:34:00,39.0,29.0,-100.00,NW,304,6.0,14.0,66,0.00,,,0.00,381.000000,,2013-11-15 21:34:00,
2013-11-15 14:14:00,39.0,27.0,-100.00,WNW,288,10.0,18.0,61,0.00,,,0.00,419.000000,,2013-11-15 22:14:00,
2013-11-15 14:23:00,39.0,27.0,-100.00,WNW,288,10.0,18.0,61,0.00,,,0.00,419.000000,,2013-11-15 22:23:00,
2013-11-15 14:33:00,39.0,27.0,-100.00,WNW,288,10.0,18.0,61,0.00,,,0.00,419.000000,,2013-11-15 22:33:00,
2013-11-15 15:12:00,37.0,30.0,-100.00,West,275,7.0,13.0,75,0.00,,,0.00,148.000000,,2013-11-15 23:12:00,
2013-11-15 15:22:00,37.0,30.0,-100.00,West,275,7.0,13.0,75,0.00,,,0.00,148.000000,,2013-11-15 23:22:00,
2013-11-15 15:33:00,37.0,30.0,-100.00,West,275,7.0,13.0,75,0.00,,,0.00,148.000000,,2013-11-15 23:33:00,
2013-11-15 16:11:00,36.0,31.0,-100.00,West,267,8.0,16.0,82,0.00,,,0.00,74.000000,,2013-11-16 00:11:00,
2013-11-15 16:21:00,36.0,31.0,-100.00,West,267,8.0,16.0,82,0.00,,,0.00,74.000000,,2013-11-16 00:21:00,
2013-11-15 16:32:00,36.0,31.0,-100.00,West,267,8.0,16.0,82,0.00,,,0.00,74.000000,,2013-11-16 00:32:00,
2013-11-15 17:12:00,34.0,31.0,-100.00,SW,219,2.0,11.0,88,0.00,,,0.00,34.000000,,2013-11-16 01:12:00,
2013-11-15 17:21:00,34.0,31.0,-100.00,SW,219,2.0,11.0,88,0.00,,,0.00,34.000000,,2013-11-16 01:21:00,
2013-11-15 17:32:00,34.0,31.0,-100.00,SW,219,2.0,11.0,88,0.00,,,0.00,34.000000,,2013-11-16 01:32:00,
2013-11-15 18:11:00,34.0,31.0,-100.00,SW,221,6.0,10.0,89,0.00,,,0.00,1.000000,,2013-11-16 02:11:00,
2013-11-15 18:22:00,34.0,31.0,-100.00,SW,221,6.0,10.0,89,0.00,,,0.00,1.000000,,2013-11-16 02:22:00,
2013-11-15 18:32:00,34.0,31.0,-100.00,SW,221,6.0,10.0,89,0.00,,,0.00,1.000000,,2013-11-16 02:32:00,
2013-11-15 19:11:00,34.0,31.0,-100.00,SW,223,8.0,12.0,89,0.00,,,0.00,0.000000,,2013-11-16 03:11:00,
2013-11-15 19:22:00,34.0,31.0,-100.00,SW,223,8.0,12.0,89,0.00,,,0.00,0.000000,,2013-11-16 03:22:00,
2013-11-15 19:34:00,34.0,31.0,-100.00,SW,223,8.0,12.0,89,0.00,,,0.00,0.000000,,2013-11-16 03:34:00,
2013-11-15 20:14:00,33.0,30.0,-100.00,WSW,247,10.0,15.0,87,0.00,,,0.00,0.000000,,2013-11-16 04:14:00,
2013-11-15 20:23:00,33.0,30.0,-100.00,WSW,247,10.0,15.0,87,0.00,,,0.00,0.000000,,2013-11-16 04:23:00,
2013-11-15 20:34:00,33.0,30.0,-100.00,WSW,247,10.0,15.0,87,0.00,,,0.00,0.000000,,2013-11-16 04:34:00,
2013-11-15 21:13:00,33.0,30.0,-100.00,WSW,246,10.0,18.0,88,0.00,,,0.00,0.000000,,2013-11-16 05:13:00,
2013-11-15 21:23:00,33.0,30.0,-100.00,WSW,246,10.0,18.0,88,0.00,,,0.00,0.000000,,2013-11-16 05:23:00,
2013-11-15 21:34:00,33.0,30.0,-100.00,WSW,246,10.0,18.0,88,0.00,,,0.00,0.000000,,2013-11-16 05:34:00,
2013-11-15 22:13:00,33.0,30.0,-100.00,WSW,248,8.0,19.0,89,0.00,,,0.00,0.000000,,2013-11-16 06:13:00,
2013-11-15 22:22:00,33.0,30.0,-100.00,WSW,248,8.0,19.0,89,0.00,,,0.00,0.000000,,2013-11-16 06:22:00,
2013-11-15 22:32:00,33.0,30.0,-100.00,WSW,248,8.0,19.0,89,0.00,,,0.00,0.000000,,2013-11-16 06:32:00,
2013-11-15 23:11:00,33.0,30.0,-100.00,WSW,245,11.0,16.0,90,0.00,,,0.00,0.000000,,2013-11-16 07:11:00,
2013-11-15 23:22:00,33.0,30.0,-100.00,WSW,245,11.0,16.0,90,0.00,,,0.00,0.000000,,2013-11-16 07:22:00,
2013-11-15 23:33:00,33.0,30.0,-100.00,WSW,245,11.0,16.0,90,0.00,,,0.00,0.000000,,2013-11-16 07:33:00,